User: anonymous   Login
Location: Unspecified
(0.0000°N, 0.0000°E)
Time: 12:29:10
(UTC+00:00)
Language:

ASUSAT - Orbit

View from above orbital plane
View from above orbital plane
View from above satellite
View from above satellite

Ground track
Ground track

The orbit data is extracted from the following two-line orbital elements,

1 26065U 00004E   16250.13357359 0.00000065  00000-0  21967-4 0    06
2 26065 100.2066 197.5145 0027976  30.7821 329.2178 14.36733457    05
Epoch (UTC): 06 September 2016 03:12:20
Eccentricity: 0.0027976
inclination: 100.2066°
perigee height: 749 km
apogee height: 789 km
right ascension of ascending node: 197.5145°
argument of perigee: 30.7821°
revolutions per day: 14.36733457
mean anomaly at epoch: 329.2178°
orbit number at epoch: 0

The dashed part of the orbit path shows where the satellite is in the earth's shadow,  

DLR